Weather History for New York JFK, NY

Change the Weather History Date:

Saturday, December 1, 2012

  Actual Average Record
Temperature  
Mean Temperature 42 °F 42 °F  
Max Temperature 45 °F 49 °F 68 °F (2001)
Min Temperature 39 °F 36 °F 18 °F (1967)
Degree Days  
Heating Degree Days 23 23  
Month to date heating degree days 23 23  
Since 1 July heating degree days 862 847  
Cooling Degree Days 0 0  
Month to date cooling degree days 0 0  
Year to date cooling degree days 1229 1005  
Moisture  
Dew Point 36 °F    
Average Humidity 76    
Maximum Humidity 82    
Minimum Humidity 70    
Precipitation  
Precipitation 0.00 in 0.12 in 0.97 in (2010)
Month to date precipitation 0.00 0.12  
Year to date precipitation 34.91 39.50  
Snow  
Snow 0.00 in 0.10 in T in (2002)
Month to date snowfall 0.0 0.1  
Since 1 July snowfall 4.3 0.3  
Snow Depth 0.00 in    
Sea Level Pressure  
Sea Level Pressure 30.47 in    
Wind  
Wind Speed 13 mph (NE)    
Max Wind Speed 18 mph    
Max Gust Speed 23 mph    
Visibility 9 miles    
Events      
T = Trace of Precipitation, MM = Missing Value Source: NWS Daily Summary

Daily Weather History Graph

Daily Weather History Graph

Search for Another Location

Airport:

Trip Planner

Search our weather history database for the weather conditions in past years. The results will help you decide how hot, cold, wet, or windy it might be!

Date:

Astronomy

Dec. 01, 2012 Rise Set
Actual Time 6:59 AM EST 4:28 PM EST
Civil Twilight 6:29 AM EST 4:58 PM EST
Nautical Twilight 5:55 AM EST 5:32 PM EST
Astronomical Twilight 5:22 AM EST 6:05 PM EST
Moon 7:16 PM EST (12/1) 9:10 AM EST (12/1)
Length of Visible Light 10h 29m
Length of Day
9h 28m
Waning Gibbous, 92% of the Moon is Illuminated
Dec 1
Waning Gibbous
Dec 6
Last Quarter
Dec 13
New
Dec 20
First Quarter
Dec 28
Full

Hourly Weather History & Observations

Time (EST) Temp. Windchill Dew Point Humidity Pressure Visibility Wind Dir Wind Speed Gust Speed Precip Events Conditions
12:51 AM 39.9 °F 32.1 °F 33.1 °F 77% 30.46 in 10.0 mi NE 13.8 mph - N/A   Overcast
1:51 AM 39.9 °F 32.9 °F 33.1 °F 77% 30.45 in 10.0 mi NE 11.5 mph - N/A   Overcast
2:51 AM 39.9 °F 31.8 °F 33.1 °F 77% 30.46 in 10.0 mi ENE 15.0 mph - N/A   Overcast
3:51 AM 39.9 °F 31.4 °F 33.1 °F 77% 30.45 in 10.0 mi NE 16.1 mph - N/A   Overcast
4:51 AM 39.9 °F 32.5 °F 34.0 °F 79% 30.46 in 10.0 mi NE 12.7 mph - N/A   Overcast
5:51 AM 39.0 °F 31.8 °F 33.1 °F 79% 30.48 in 10.0 mi NNE 11.5 mph - N/A   Overcast
6:28 AM 39.2 °F 31.6 °F 33.8 °F 81% 30.48 in 10.0 mi NE 12.7 mph - N/A   Overcast
6:51 AM 39.0 °F 31.4 °F 34.0 °F 82% 30.49 in 10.0 mi NE 12.7 mph - N/A   Overcast
7:51 AM 41.0 °F 34.3 °F 34.0 °F 76% 30.50 in 10.0 mi NE 11.5 mph - N/A   Overcast
8:51 AM 42.1 °F 34.2 °F 35.1 °F 76% 30.50 in 10.0 mi ENE 16.1 mph 23.0 mph N/A   Overcast
9:51 AM 43.0 °F 36.0 °F 35.1 °F 74% 30.53 in 10.0 mi NE 13.8 mph - N/A   Overcast
10:51 AM 41.0 °F 33.5 °F 33.1 °F 73% 30.52 in 10.0 mi NE 13.8 mph - N/A   Mostly Cloudy
11:51 AM 43.0 °F 35.7 °F 34.0 °F 71% 30.48 in 10.0 mi NE 15.0 mph - N/A   Mostly Cloudy
12:51 PM 44.1 °F 37.4 °F 37.0 °F 76% 30.46 in 10.0 mi NE 13.8 mph - N/A   Overcast
1:51 PM 44.1 °F 37.4 °F 37.0 °F 76% 30.45 in 10.0 mi NE 13.8 mph - N/A   Overcast
2:51 PM 43.0 °F 36.8 °F 37.0 °F 80% 30.45 in 9.0 mi NE 11.5 mph - N/A   Overcast
3:51 PM 42.1 °F 35.7 °F 36.0 °F 79% 30.45 in 8.0 mi NNE 11.5 mph - N/A   Overcast
4:51 PM 41.0 °F 34.3 °F 36.0 °F 82% 30.47 in 8.0 mi North 11.5 mph - N/A   Overcast
5:51 PM 41.0 °F 33.5 °F 37.0 °F 86% 30.48 in 7.0 mi NNE 13.8 mph - N/A   Overcast
6:51 PM 42.1 °F 36.1 °F 37.9 °F 85% 30.48 in 7.0 mi NNE 10.4 mph - N/A   Overcast
7:51 PM 42.1 °F 36.6 °F 39.0 °F 89% 30.46 in 7.0 mi NNE 9.2 mph - N/A   Overcast
8:51 PM 43.0 °F 37.7 °F 39.0 °F 86% 30.45 in 7.0 mi NNE 9.2 mph - N/A   Overcast
9:51 PM 43.0 °F 37.2 °F 39.9 °F 89% 30.44 in 6.0 mi NNE 10.4 mph - N/A   Overcast
10:51 PM 42.1 °F 36.6 °F 39.0 °F 89% 30.44 in 5.0 mi North 9.2 mph - N/A   Overcast
11:51 PM 42.1 °F 37.7 °F 39.0 °F 89% 30.43 in 4.0 mi North 6.9 mph - N/A   Overcast